[Iaude] MPEC U77: 2016 UY35 [a=0.93,e=0.18,i=17.4,H=24.9]

mpec at si.edu mpec at si.edu
Wed Oct 26 22:19:52 EDT 2016


M.P.E.C. 2016-U77                                Issued 2016 Oct. 27, 02:15 UT
 
     The Minor Planet Electronic Circulars contain information on unusual
         minor planets and routine data on comets.  They are published
    on behalf of Division F of the International Astronomical Union by the
          Minor Planet Center, Smithsonian Astrophysical Observatory,
                          Cambridge, MA 02138, U.S.A.

             Prepared using the Tamkin Foundation Computer Network

                              MPC at CFA.HARVARD.EDU
            URL http://www.minorplanetcenter.net/    ISSN 1523-6714


                                   2016 UY35
 
Observations:
     K16U35Y* C2016 10 25.50326 02 14 02.086+24 44 11.63         20.5 wLEU077F51
     K16U35Y  C2016 10 25.51721 02 13 58.288+24 40 44.84         20.1 wLEU077F51
     K16U35Y  C2016 10 25.53120 02 13 54.508+24 37 16.57         20.1 wLEU077F51
     K16U35Y  C2016 10 25.54516 02 13 50.774+24 33 49.56         20.4 wLEU077F51
     K16U35Y  C2016 10 26.36579 02 10 51.78 +21 13 45.6          20.0 RoEU077926
     K16U35Y  C2016 10 26.36850 02 10 51.09 +21 13 06.1          20.0 RoEU077926
     K16U35Y  C2016 10 26.37120 02 10 50.41 +21 12 26.3          19.8 RoEU077926
     K16U35Y KC2016 10 26.38692 02 10 46.51 +21 08 35.9          19.8 RoEU077291
     K16U35Y KC2016 10 26.38730 02 10 46.42 +21 08 30.3          19.7 RoEU077291
     K16U35Y KC2016 10 26.38769 02 10 46.32 +21 08 24.7          20.0 RoEU077291
     K16U35Y KC2016 10 26.97697 02 08 45.09 +18 46 30.9          19.3 RoEU077461
     K16U35Y KC2016 10 26.98253 02 08 43.77 +18 45 10.0          19.4 RoEU077461
 
Observer details:
291 LPL/Spacewatch II.  Observer R. A. Mastaler.  1.8-m f/2.7 reflector + CCD.
461 University of Szeged, Piszkesteto Stn. (Konkoly).  Observer K. Sarneczky.
    0.60-m Schmidt + CCD.
926 Tenagra II Observatory.  Observers M. Schwartz, P. R. Holvorcem.  Measurer
    M. Schwartz.  0.81-m f/7 Ritchey-Chretien + CCD.
F51 Pan-STARRS 1, Haleakala.  Observers B. Gibson, T. Goggia, S. Kahale,
    A. Schultz, M. Willman.  Measurers K. Chambers, S. Chastel, L. Denneau,
    H. Flewelling, M. Huber, E. Lilly, E. Magnier, R. Wainscoat, C. Waters,
    R. Weryk.  1.8-m Ritchey-Chretien + CCD.
 
Orbital elements:
2016 UY35                                                Earth MOID = 0.0733 AU
Epoch 2016 July 31.0 TT = JDT 2457600.5                 MPC
M  45.58492              (2000.0)            P               Q
n   1.09876255     Peri.   25.82950     -0.49585795     +0.85111998
a   0.9301082      Node   215.19975     -0.83955637     -0.52058733
e   0.1789605      Incl.   17.40190     -0.22196843     +0.06770243
P   0.90           H   24.9           G   0.15           U   8
Residuals in seconds of arc
161025 F51  0.0   0.0     161026 926  0.1+  0.2+    161026 291  0.0   0.1-
161025 F51  0.0   0.1+    161026 926  0.1+  0.3+    161026 291  0.0   0.0
161025 F51  0.0   0.4-    161026 926  0.2+  0.1-    161026 461  0.1-  0.6+
161025 F51  0.0   0.2+    161026 291  0.1-  0.1-    161026 461  0.1-  0.6-

Ephemeris:
2016 UY35                a,e,i = 0.93, 0.18, 17                  q = 0.7637
Date    TT    R. A. (2000) Decl.     Delta      r     Elong.  Phase     V
2016 09 27    07 46 10.7 +79 56 15   0.1636  1.0091    87.7    83.0    23.9
...
2016 10 12    03 44 09.8 +68 00 21   0.1026  1.0442   114.2    60.7    22.2
...
2016 10 20    02 40 03.6 +46 23 53   0.07987 1.0595   141.7    35.6    21.0
...
2016 10 26    02 12 14.2 +22 43 03   0.07649 1.0694   169.4     9.8    20.1
2016 10 27    02 08 41.9 +18 42 08   0.07744 1.0709   174.0     5.5    19.9
2016 10 28    02 05 25.1 +14 47 50   0.07882 1.0723   178.0     1.9    19.8
...
2016 11 03    01 50 17.4 -04 44 02   0.09480 1.0802   157.5    20.6    21.0
...
2016 11 11    01 39 09.6 -19 51 48   0.1293  1.0883   137.1    38.2    22.2
...
2016 11 26    01 34 39.1 -30 33 09   0.2075  1.0960   116.7    53.5    23.6

A. U. Tomatic                (C) Copyright 2016 MPC           M.P.E.C. 2016-U77




More information about the Iaude mailing list